{"data":{"norad_id":59232,"epoch":"2026-05-25T03:51:06.487200Z","epoch_age_seconds":54330,"freshness":"FRESH","line1":"1 59232U 24049B   26145.16049175  .00001296  00000+0  56599-4 0  9996","line2":"2 59232  43.0017  71.4525 0000684 280.7742  79.3033 15.27582631124080","mean_motion":15.27582631,"eccentricity":6.84e-5,"inclination_deg":43.0017,"raan_deg":71.4525,"arg_perigee_deg":280.7742,"mean_anomaly_deg":79.3033,"bstar":5.6599e-5,"rev_number":12408,"period_min":94.266586355288,"perigee_km":482.57191330036,"apogee_km":483.51052248057,"semimajor_km":6861.1782178905,"source":"CELESTRAK","updated_at":"2026-05-25T13:38:18.869102Z"}}